This demonstration page uses our WeatherBlox Daily Observations layout. Learn more.

Left ArrowRight Arrow

39.95238, -75.16362

Hourly Observations for September 26, 2019

Temp ( °F °C ) Dew Point ( °F °C ) Humidity (%) Winds ( mph kmh ) Pressure ( in mb ) Visibility ( mi km ) Precip ( " mm )
12:54 am 00:54 Mostly Cloudy 65 18.3 58 14.4 78 78 SSW 6 9 29.88 1012 10 16 0.00 0.00
1:54 am 01:54 Partly Cloudy 65 18.3 57 13.9 76 76 SSW 7 11 29.88 1012 10 16 0.00 0.00
2:54 am 02:54 Mostly Clear 64 17.8 56 13.3 75 75 S 6 9 29.86 1011 10 16 0.00 0.00
3:54 am 03:54 Mostly Clear 64 17.8 56 13.3 75 75 S 7 11 29.85 1011 10 16 0.00 0.00
4:54 am 04:54 Mostly Cloudy 63 17.2 56 13.3 78 78 S 7 11 29.84 1010 10 16 0.00 0.00
5:54 am 05:54 Mostly Cloudy 63 17.2 57 13.9 81 81 S 5 7 29.83 1010 10 16 0.00 0.00
6:54 am 06:54 Mostly Cloudy 62 16.7 57 13.9 84 84 SSE 3 6 29.83 1010 10 16 0.00 0.00
7:54 am 07:54 Mostly Cloudy 64 17.8 59 15 84 84 VRB 6 9 29.81 1010 10 16 0.00 0.00
8:54 am 08:54 Mostly Cloudy 68 20 62 16.7 81 81 W 8 13 29.83 1010 10 16 0.00 0.00
9:54 am 09:54 Partly Cloudy 72 22.2 64 17.8 76 76 S 9 15 29.83 1010 10 16 0.00 0.00
10:54 am 10:54 Partly Cloudy 76 24.4 64 17.8 67 67 SSW 8 13 29.80 1009 10 16 0.00 0.00
11:54 am 11:54 Partly Cloudy 79 26.1 64 17.8 60 60 S 9 15 29.78 1008 10 16 0.00 0.00
12:54 pm 12:54 Partly Cloudy 82 27.8 63 17.2 53 53 SW 9 15 29.76 1008 10 16 0.00 0.00
1:54 pm 13:54 Mostly Cloudy 83 28.3 64 17.8 53 53 W 15 24 29.74 1007 10 16 0.00 0.00
2:54 pm 14:54 Mostly Cloudy 83 28.3 64 17.8 53 53 W 12 19 29.74 1007 10 16 0.00 0.00
3:54 pm 15:54 Cloudy 81 27.2 57 13.9 44 44 WNW 13 20 29.75 1008 10 16 0.00 0.00
4:07 pm 16:07 Cloudy with Light Rain 75 23.9 64 17.8 69 69 NNW 22 35 29.77 1008 5 8 0.00 0.00
4:20 pm 16:20 Mostly Cloudy with Light Rain 74 23.3 64 17.8 71 71 NNW 22 35 29.78 1008 10 16 0.01 0.25
4:54 pm 16:54 Cloudy 73 22.8 59 15 62 62 NNW 15 24 29.79 1009 10 16 0.01 0.25
5:54 pm 17:54 Partly Cloudy 72 22.2 60 15.6 66 66 NNW 10 17 29.81 1010 10 16 0.00 0.00
6:54 pm 18:54 Mostly Cloudy 71 21.7 59 15 66 66 NW 7 11 29.83 1010 10 16 0.00 0.00
7:54 pm 19:54 Partly Cloudy 69 20.6 60 15.6 73 73 NW 7 11 29.88 1012 10 16 0.00 0.00
8:54 pm 20:54 Mostly Clear 68 20 60 15.6 76 76 N 9 15 29.91 1013 10 16 0.00 0.00
9:54 pm 21:54 Mostly Clear 67 19.4 60 15.6 79 79 N 8 13 29.94 1014 10 16 0.00 0.00
10:54 pm 22:54 Mostly Clear 66 18.9 60 15.6 81 81 VRB 3 6 29.96 1015 10 16 0.00 0.00
11:54 pm 23:54 Clear 66 18.9 59 15 78 78 Calm 29.96 1015 10 16 0.00 0.00

Powered by AerisWeather